Terminal Aerodrome Forecast
Issued by NWS

Home | Current Version | Previous Version | Text Only | Print | Product List | Glossary On
Versions: 1 2 3 4 5 6 7 8 9 10 11 12 13 14 15 16 17 18 19 20 21 22 23 24 25
000
FTUS45 KLKN 040528
TAFTPH
TAF
KTPH 040528Z 0406/0506 22006KT P6SM FEW110 FEW200
     FM040800 36007KT P6SM BKN120
     FM042000 25010KT P6SM VCTS SCT100CB SCT200
     FM050400 01007KT P6SM FEW110=

USA.gov is the U.S. government's official web portal to all federal, state and local government web resources and services.